Theta_e
309 308 309 308 308 308 308 307 306 305 305 300 297 302 301 297 298 314 319 319 315 304 297 297 298 300 302 309 308 309 308 307 306 304 305 305 305 305 305 306 305 308 306 306 304 305 299 303 300 302 306 304 307 309 311 311 309 306 300 306 305 319 296 292 294 297 299 305 307 310 311 311 304 303 305 303 297 298 294 291 294 288 292 286 286 287 292
308 308 308 308 308 307 307 307 306 306 305 298 298 300 298 299 301 305 315 321 316 305 291 289 289 298 304 307 306 309 308 306 306 306 307 306 304 304 304 305 309 305 310 307 304 306 292 304 303 298 305 304 311 311 311 312 306 307 303 300 308 293 294 294 286 283 286 294 297 301 305 308 301 300 302 305 305 304 301 299 294 288 291 289 286 286 289
308 308 308 308 307 307 307 307 306 306 305 304 299 298 300 302 306 306 308 316 312 303 300 297 294 297 301 304 302 304 306 308 308 307 306 308 306 305 303 307 309 307 310 307 308 309 302 297 305 305 306 305 313 313 311 311 307 311 320 319 309 299 297 288 284 283 281 283 285 288 294 297 301 307 305 306 304 302 298 292 288 286 292 292 286 290 300
307 307 307 307 307 307 307 306 306 306 305 304 300 303 303 303 293 299 306 311 311 308 309 305 300 298 301 296 301 305 302 306 310 309 308 309 307 306 307 308 309 307 305 303 304 303 309 302 300 302 301 304 310 313 311 311 310 317 320 319 310 300 299 294 289 285 285 290 293 298 301 300 296 301 303 303 305 303 299 294 287 286 291 291 296 298 299
307 307 307 307 307 307 307 306 306 305 305 305 300 303 303 307 300 295 291 302 301 305 305 307 305 299 302 292 304 301 303 305 307 311 304 308 307 308 306 307 303 303 304 301 302 304 303 307 306 304 304 306 308 310 310 310 318 321 316 322 305 296 290 298 299 298 299 302 302 305 305 301 303 301 301 303 303 302 298 290 290 298 296 289 298 302 300
306 307 307 307 307 307 307 306 306 305 305 304 302 305 308 294 299 306 306 298 289 292 293 303 302 306 306 301 307 303 302 303 300 307 309 309 309 302 303 306 308 306 305 303 294 300 300 300 299 305 307 305 306 305 309 308 315 315 310 315 303 295 289 299 300 299 302 304 304 305 304 304 305 305 303 302 303 301 298 297 300 298 291 291 299 302 301
306 306 307 307 307 307 307 306 305 304 304 304 305 303 306 304 303 304 308 296 301 301 303 305 305 305 306 299 305 302 303 302 306 305 304 307 306 307 291 301 305 305 308 302 297 300 292 291 299 301 300 303 302 299 303 306 309 309 306 309 306 296 292 299 301 299 301 303 304 304 302 303 303 304 305 304 303 302 302 301 301 299 298 301 301 301 302
306 306 307 307 307 307 307 306 305 304 304 306 308 308 304 300 299 297 306 304 304 304 304 305 304 299 306 294 304 305 304 302 304 308 306 298 303 309 303 304 305 305 307 303 299 301 300 300 297 301 303 300 302 301 302 301 305 308 305 308 307 299 291 301 298 291 296 301 303 304 303 304 302 305 305 304 304 303 303 303 303 303 301 302 302 301 301
306 306 307 307 307 307 307 306 305 304 304 307 307 310 310 309 307 308 302 300 301 304 304 303 301 295 298 295 302 305 306 304 307 306 310 305 304 307 304 306 305 306 307 305 304 308 307 305 303 304 304 298 304 299 300 307 302 305 304 305 305 301 292 299 292 284 291 299 301 304 305 305 304 302 303 304 302 299 300 297 302 301 299 300 300 299 299
305 306 306 307 307 307 307 306 305 304 303 302 302 305 308 308 310 312 306 296 306 301 303 303 295 291 301 303 303 304 303 307 306 296 306 309 309 308 305 305 303 301 302 302 304 307 309 309 310 309 309 309 309 306 306 307 304 302 303 306 302 302 298 291 287 283 286 298 301 300 299 296 294 295 300 305 305 304 305 305 305 305 304 300 295 298 304
305 306 306 306 307 307 307 306 306 304 301 297 296 298 302 303 303 305 304 294 294 301 302 299 299 303 304 309 305 306 305 306 305 296 293 308 306 308 308 305 302 297 300 305 310 310 309 308 308 307 307 306 306 306 307 312 310 306 305 299 299 301 298 295 291 285 287 297 300 296 289 285 285 295 307 308 304 304 302 301 303 305 305 300 303 305 307
305 305 306 306 307 307 307 306 306 305 302 297 298 298 302 305 304 304 299 291 294 302 302 299 301 304 305 307 307 304 303 304 305 308 303 304 306 309 308 306 302 291 305 309 306 305 307 308 308 306 307 306 306 307 310 309 310 310 310 303 299 298 296 292 290 284 288 292 294 287 284 284 294 304 307 310 309 307 304 304 306 305 306 307 306 306 307
305 305 306 306 306 307 307 306 306 305 305 299 298 296 301 304 302 302 301 297 289 299 300 301 305 306 307 306 305 305 307 308 307 307 308 306 306 309 310 307 305 305 310 307 306 305 302 299 300 301 302 303 306 310 309 309 309 310 308 308 301 295 290 290 288 286 286 285 286 282 281 293 301 305 307 310 308 306 305 302 304 306 307 308 306 307 308
305 305 306 306 306 306 306 306 306 305 305 302 296 297 301 303 302 300 299 291 292 299 304 301 302 302 303 306 306 306 306 305 304 305 303 309 307 307 309 311 310 309 308 309 304 302 293 289 285 290 294 294 293 296 304 309 309 307 307 307 308 303 297 291 290 291 287 284 281 284 296 297 299 301 303 304 302 302 301 292 298 305 306 307 307 308 306
304 305 306 306 306 306 306 306 306 305 305 304 298 298 300 302 304 304 303 299 290 294 301 292 302 303 304 306 306 300 300 300 301 301 306 308 309 311 311 309 310 309 309 305 299 297 293 287 285 284 285 285 283 287 301 299 305 308 308 308 308 304 300 295 290 287 285 285 286 288 287 285 290 298 307 310 309 309 307 300 297 304 308 310 309 306 305
304 305 305 306 306 306 306 306 306 305 305 304 298 298 299 302 305 306 304 298 293 290 296 305 309 306 303 303 306 303 298 297 297 298 297 301 306 307 309 310 310 310 309 306 301 291 287 288 286 283 284 287 295 292 287 298 297 304 306 308 307 305 300 295 288 288 285 284 284 285 286 286 292 300 307 309 310 311 308 300 295 303 307 310 310 306 305
304 305 305 306 306 306 306 306 306 305 305 304 297 298 298 305 307 306 303 302 300 291 304 310 309 307 300 297 298 299 299 292 299 291 290 296 302 305 307 309 308 309 306 300 297 288 287 285 289 290 287 296 291 290 293 292 291 292 300 302 301 298 294 288 287 286 285 283 284 285 283 289 301 306 307 311 313 311 303 290 291 302 308 310 310 307 305
304 305 305 306 306 306 306 306 306 305 305 304 299 296 298 303 305 307 304 302 297 294 304 308 305 301 299 301 298 303 304 300 299 298 295 299 303 302 305 305 303 307 308 296 292 283 284 285 288 286 286 297 301 295 284 293 289 289 293 294 293 290 287 287 287 283 286 286 284 286 290 302 307 307 309 311 313 305 290 286 292 305 309 311 312 311 310
304 305 305 306 306 306 305 305 306 306 305 304 300 300 301 303 307 309 305 301 300 292 303 308 309 308 308 311 305 306 304 303 299 289 288 293 300 306 306 307 306 294 303 292 291 288 286 288 294 293 288 291 298 287 295 288 288 294 296 289 287 286 290 283 285 286 287 286 284 285 286 296 307 309 310 311 302 290 288 296 307 310 310 311 312 310 310
304 305 305 305 306 306 305 305 306 306 305 305 301 293 296 300 305 309 305 299 300 299 303 304 308 305 308 307 303 299 300 299 300 294 291 290 299 301 292 291 298 300 295 290 283 291 287 287 290 294 287 289 292 299 288 290 298 296 293 296 290 289 287 285 287 289 288 281 281 285 285 294 308 308 308 309 292 292 302 309 311 313 311 311 311 312 311
304 304 305 305 306 305 305 305 305 306 305 305 303 297 300 305 307 308 308 304 299 295 296 306 308 306 308 307 308 309 304 299 299 297 300 299 302 291 287 289 296 298 291 288 286 288 290 285 287 292 295 295 294 292 287 289 291 299 300 295 295 299 289 284 287 289 284 284 284 285 290 301 310 306 293 304 306 309 310 309 309 311 312 311 311 310 311
304 304 305 305 305 305 305 305 305 305 305 305 303 298 298 303 302 306 306 307 301 290 297 304 308 308 311 312 312 312 311 309 306 305 300 298 300 299 299 302 302 300 300 298 291 292 292 293 294 290 288 289 292 291 293 286 284 290 302 298 288 302 296 294 288 295 289 285 289 303 309 309 309 309 307 309 312 314 314 312 309 310 311 314 311 309 311
304 304 305 305 305 305 305 304 305 305 305 305 301 295 292 295 297 302 303 301 304 305 307 307 310 311 314 315 317 317 316 317 310 308 304 297 291 301 301 299 301 306 305 300 294 293 294 293 288 294 289 293 293 290 289 288 284 292 289 299 298 304 306 304 299 300 307 307 307 309 308 309 309 310 312 311 312 314 314 313 310 311 311 310 309 309 309
304 304 305 305 305 305 305 305 305 305 305 305 303 294 293 296 297 301 303 303 300 292 292 297 304 299 304 308 312 313 314 309 310 308 309 306 291 293 302 305 306 307 304 306 303 299 295 294 294 296 287 295 296 286 287 284 291 295 292 292 299 305 305 302 297 303 294 289 306 308 308 309 310 311 313 314 314 314 314 310 310 311 310 310 310 309 308
304 304 304 305 305 305 305 305 305 305 305 305 303 301 299 298 301 301 299 291 290 289 291 289 297 307 312 314 314 307 309 310 313 310 310 308 307 302 301 308 308 303 301 304 302 297 287 297 295 293 287 299 298 287 294 290 290 298 286 291 295 296 308 300 301 299 294 293 304 308 311 311 311 310 310 309 310 312 312 311 309 309 312 311 310 310 309
304 304 304 304 305 305 305 304 305 305 304 305 304 296 293 292 297 300 300 301 301 298 291 288 300 311 312 309 307 311 313 310 311 312 311 310 311 311 310 311 308 309 306 305 301 295 288 287 292 293 289 290 301 290 292 296 295 297 293 297 303 304 307 291 301 298 303 307 308 309 310 310 311 312 310 311 311 309 307 307 308 309 308 309 309 310 309
303 304 304 304 304 305 305 304 305 304 304 304 302 298 297 297 299 298 300 303 296 291 291 287 298 305 307 305 309 311 313 305 307 308 309 312 314 313 312 308 305 303 303 300 297 292 286 288 289 294 295 296 300 298 300 297 297 295 295 303 307 302 297 303 302 294 292 296 302 307 295 297 304 307 308 309 310 308 305 305 304 305 305 305 304 304 305
303 304 304 304 305 305 305 304 304 304 304 304 302 299 299 298 300 302 303 304 299 290 289 290 295 301 306 305 312 310 309 306 304 306 309 312 313 312 310 307 305 304 300 290 289 290 286 289 295 295 298 300 297 293 300 299 299 295 299 303 307 303 304 302 293 291 294 305 308 309 306 305 306 307 308 310 309 305 303 303 303 303 304 304 304 303 303
303 304 304 304 304 305 304 304 304 304 304 303 299 299 300 301 302 304 307 309 306 301 296 293 298 299 299 303 310 308 307 305 304 304 306 310 311 310 308 306 304 302 300 293 288 285 286 290 294 296 299 304 302 295 296 289 288 289 299 305 307 309 311 308 307 306 307 308 308 309 307 304 306 308 306 305 306 304 303 303 303 303 303 303 303 303 302
303 304 304 304 304 304 304 304 304 304 304 299 297 299 293 302 308 308 306 310 306 302 292 290 287 290 302 307 306 306 304 306 303 304 307 308 308 307 306 305 303 304 297 290 287 292 291 289 295 303 308 311 300 296 293 293 290 297 305 306 308 310 310 310 311 308 305 311 312 312 310 309 307 304 304 303 304 304 302 302 302 302 303 303 302 302 303
303 304 304 304 304 304 304 304 304 305 303 296 295 288 290 291 303 307 305 304 305 303 290 290 291 295 298 304 306 303 304 304 300 300 302 306 307 308 309 308 305 305 293 291 288 291 289 291 293 299 306 305 297 295 296 292 287 295 304 306 306 308 308 308 310 311 311 311 313 314 310 304 304 303 303 303 304 304 304 305 308 309 305 304 302 302 301
303 304 304 305 305 304 304 304 304 304 300 295 293 297 299 302 306 305 303 302 304 301 291 291 287 286 289 295 303 306 304 304 304 301 301 304 305 306 305 306 304 304 295 292 291 287 291 296 296 298 300 304 300 298 298 293 288 295 304 305 307 308 310 310 310 312 316 316 313 304 302 302 302 300 299 302 302 303 304 305 306 307 309 303 302 302 302
303 304 304 305 304 304 304 305 305 303 299 301 304 305 305 305 305 304 302 299 304 300 298 289 290 289 288 293 301 302 305 303 301 302 301 303 305 304 302 306 305 304 307 294 290 289 295 296 298 295 299 302 295 295 297 295 298 305 307 307 308 308 308 311 312 313 312 313 311 300 299 299 300 301 301 301 301 301 301 301 302 302 302 301 300 300 300
304 304 304 304 304 305 305 305 306 305 304 300 298 301 305 308 307 307 301 302 299 300 299 290 290 288 289 296 296 297 303 296 299 297 293 300 303 300 297 302 299 291 299 293 296 293 298 291 290 295 296 299 298 292 289 296 303 305 307 308 308 308 308 309 308 308 309 308 306 304 302 302 301 300 300 300 300 301 301 301 301 301 300 300 299 299 300
304 304 303 304 304 305 305 305 301 299 296 298 300 305 308 308 307 306 304 302 299 291 291 291 288 285 284 284 289 292 304 299 297 297 294 294 303 302 299 290 291 287 295 301 292 291 292 294 298 286 290 293 287 288 294 299 303 305 307 307 307 307 307 304 303 303 303 303 303 302 302 301 300 299 300 300 301 302 300 300 300 300 299 298 299 298 299
303 304 304 304 305 305 301 302 297 296 298 297 302 309 307 308 306 302 304 308 305 299 292 293 289 284 285 285 284 292 301 298 298 298 297 297 295 298 296 289 290 291 297 293 288 297 293 300 290 288 292 288 289 292 297 301 301 303 305 306 307 307 305 304 304 304 302 303 303 303 303 301 301 301 303 303 303 303 302 301 300 299 298 298 298 299 299
304 304 305 304 301 300 296 297 299 301 302 307 310 309 311 311 311 309 306 304 307 307 297 294 286 287 291 289 292 296 295 287 292 291 291 289 289 289 289 286 286 288 288 288 292 290 297 300 289 286 284 286 293 297 298 301 301 302 303 304 307 306 307 307 307 305 304 305 306 305 304 303 302 302 301 300 301 302 302 302 301 301 301 300 300 300 301
304 304 298 296 296 290 288 294 303 305 309 309 309 304 302 302 293 294 296 292 298 305 293 296 289 293 295 293 287 296 296 290 291 287 287 290 288 289 288 286 287 288 288 286 289 299 295 287 284 286 292 294 296 300 302 303 303 302 301 302 303 304 305 305 306 305 303 301 302 302 302 300 300 299 300 302 303 303 302 303 303 304 304 304 303 303 302
303 298 297 296 293 287 291 303 307 308 305 306 305 293 290 291 289 289 290 291 291 290 294 295 288 293 293 293 293 298 297 293 289 290 288 293 287 285 287 287 288 287 286 285 293 296 286 286 285 285 290 295 298 302 304 303 304 304 303 302 303 303 305 305 307 304 302 301 301 302 301 300 300 301 302 301 301 301 301 301 301 302 302 302 301 301 300
296 294 291 293 291 293 302 307 309 308 305 295 296 290 289 289 288 287 287 289 287 286 295 292 295 295 296 293 292 292 296 293 287 288 287 289 293 286 287 285 286 285 284 283 287 291 285 286 286 284 288 294 296 299 302 304 303 303 304 304 304 305 305 305 304 304 304 303 304 304 305 304 304 303 301 301 300 299 299 299 299 300 300 300 301 299 298
295 294 296 292 296 299 299 303 304 304 294 288 288 286 284 285 286 286 286 283 284 285 293 292 293 295 295 296 295 292 295 301 297 295 289 285 293 288 284 285 286 283 282 284 286 287 283 284 284 284 288 294 298 300 302 303 303 304 305 305 305 305 305 304 304 304 304 303 303 303 303 303 302 302 301 300 299 298 298 298 298 298 298 298 297 296 297
297 297 297 298 298 299 301 300 293 288 288 289 285 283 283 281 284 285 284 283 282 285 289 293 290 290 290 295 294 295 294 299 296 288 286 286 287 285 285 284 284 281 282 283 288 284 283 283 285 287 291 295 299 301 302 302 303 304 305 304 305 305 305 304 304 303 303 302 301 301 301 301 301 300 300 299 298 297 297 297 297 297 297 296 297 296 297
304 303 301 297 298 295 290 288 289 287 282 282 279 279 281 281 281 281 281 285 289 289 289 298 294 296 298 300 296 298 295 301 293 291 285 285 287 284 282 282 282 282 282 287 285 283 283 282 283 289 294 296 301 302 303 304 304 304 304 304 303 303 303 303 302 302 302 302 300 299 299 299 299 299 300 298 297 296 296 296 296 296 296 296 295 295 295
299 300 297 292 288 288 290 284 288 287 283 282 280 278 279 279 281 283 283 281 286 288 289 290 290 293 292 294 293 293 292 293 290 285 285 285 285 282 281 282 281 284 288 282 281 283 282 280 289 293 296 300 304 303 304 305 304 302 301 301 301 301 300 300 299 298 298 298 298 298 297 296 296 297 298 297 297 296 295 295 295 296 295 295 295 294 294
291 290 289 285 284 286 284 279 285 283 280 281 282 281 280 277 278 279 283 286 289 286 291 293 293 294 291 295 294 292 290 288 287 287 285 284 282 283 281 282 282 282 282 281 280 281 285 290 293 295 299 302 303 303 304 303 302 302 300 299 299 299 299 298 297 297 296 296 296 296 295 295 295 295 295 296 295 295 295 294 295 296 295 294 293 294 294
289 286 283 282 282 283 282 279 281 280 282 283 282 282 281 282 282 284 287 290 290 290 290 292 294 294 293 293 288 288 287 285 285 285 285 283 282 283 283 286 284 280 279 278 279 278 280 290 294 297 301 302 302 302 302 301 301 300 300 298 297 297 297 297 296 296 296 295 295 295 294 294 294 294 294 294 294 294 294 294 294 296 294 293 293 293 294
290 291 286 283 280 282 284 281 281 282 284 284 286 285 285 286 287 287 287 292 290 291 290 292 295 294 292 292 290 288 286 285 285 286 283 283 283 283 284 284 282 279 279 277 277 278 284 290 293 297 300 301 300 300 300 299 299 298 298 297 296 296 296 296 296 295 294 294 294 294 293 293 293 293 293 294 293 293 293 293 294 294 295 294 293 293 293
288 288 285 280 278 281 282 283 285 287 287 289 288 287 289 288 288 288 290 289 290 294 295 294 294 293 294 292 289 286 287 285 284 285 284 285 284 281 278 278 278 279 278 279 278 279 286 294 295 298 299 300 300 299 298 298 297 297 297 296 296 296 295 295 294 294 294 294 293 293 293 293 293 293 293 293 292 293 293 294 294 294 294 294 294 292 293
290 288 283 281 282 284 283 285 288 286 286 288 289 288 289 289 288 289 290 291 292 292 294 294 293 288 288 286 285 286 286 285 283 284 284 281 280 278 277 276 276 277 280 281 279 282 292 296 297 299 299 299 299 299 298 298 297 297 297 296 296 295 296 295 295 294 294 294 293 293 293 293 292 292 292 292 292 294 293 294 295 294 294 293 294 292 292
289 287 288 286 284 284 285 287 288 284 286 287 288 290 288 288 288 291 291 292 293 295 293 291 290 286 287 285 285 282 285 284 283 284 281 281 279 280 279 276 276 278 278 282 287 290 293 297 298 298 298 298 298 298 297 297 296 298 297 296 296 296 296 295 294 294 294 293 293 293 293 292 291 291 292 294 293 294 293 294 294 293 293 293 293 292 292
290 288 285 286 285 282 285 282 283 280 283 286 287 287 289 290 290 289 292 295 294 288 286 287 287 284 285 283 282 282 284 285 284 282 282 280 282 280 278 277 279 280 282 288 293 294 296 297 298 297 297 297 297 297 297 298 297 297 297 297 297 296 296 295 295 295 293 294 293 290 294 293 292 292 293 293 294 294 292 293 293 292 291 292 293 292 292
287 286 284 285 289 288 288 288 288 287 288 289 288 288 292 293 293 294 296 293 290 288 287 286 286 284 282 282 282 284 286 283 282 282 283 282 282 280 278 280 280 286 293 295 294 295 295 296 297 298 297 297 297 297 297 298 297 297 296 296 295 296 295 294 294 295 294 294 294 293 294 293 293 293 293 293 293 292 293 291 292 291 292 292 292 292 292
Wind_Speed
11 12 13 14 15 16 16 17 17 19 20 6 5 2 3 2 3 4 3 4 3 4 1 2 1 1 3 6 4 5 3 3 5 7 6 3 3 2 2 2 3 0 1 0 0 0 0 0 1 2 2 3 3 4 9 7 7 2 3 3 2 3 2 3 3 6 3 2 4 2 2 2 2 1 3 3 3 5 5 5 5 6 2 3 1 4 3
11 12 13 14 14 15 15 16 15 15 14 2 3 2 1 2 2 6 3 2 3 3 0 4 5 4 5 2 3 4 3 3 6 6 7 4 3 4 3 5 3 2 1 1 0 1 1 1 2 2 1 3 6 7 8 5 3 1 1 1 4 2 2 3 2 2 4 6 8 9 8 5 2 4 3 2 2 4 3 6 3 6 1 5 5 4 2
11 12 14 13 14 14 15 15 14 13 11 5 0 2 2 3 2 3 5 3 2 1 3 2 1 3 3 3 6 7 3 4 5 4 5 4 2 1 3 2 2 2 0 0 1 1 2 1 2 1 2 2 3 7 5 7 3 3 2 1 0 4 1 3 3 3 3 3 3 4 6 5 5 5 12 10 5 6 6 2 2 5 1 6 3 4 2
11 12 13 14 14 14 15 15 14 12 11 6 1 1 1 3 2 5 2 2 1 1 1 1 2 1 2 4 4 3 4 4 7 9 3 5 3 4 2 3 5 3 2 2 2 2 0 1 2 1 2 2 3 4 8 5 3 4 8 5 4 1 1 3 4 4 5 5 5 5 2 2 4 12 9 11 2 3 6 5 5 4 2 6 3 4 8
11 12 13 13 14 14 15 16 16 14 11 3 4 1 1 0 2 1 3 6 3 2 2 2 2 4 2 1 2 4 3 3 3 8 2 4 4 2 4 2 3 1 3 0 1 1 3 3 1 1 3 3 3 10 7 6 5 9 3 6 3 3 3 1 3 1 6 5 2 1 0 3 1 6 9 9 2 3 4 5 5 8 12 4 1 7 9
10 12 13 13 14 15 16 18 18 16 14 3 3 2 0 2 2 2 2 1 3 4 4 6 7 6 1 2 0 2 4 5 3 4 3 3 6 4 4 6 2 1 1 1 0 3 3 1 1 3 1 3 6 7 6 3 11 8 1 2 3 2 1 2 2 2 3 2 4 5 5 5 2 7 5 3 3 4 4 2 10 4 6 11 10 7 9
10 12 13 13 14 15 16 18 20 19 15 7 0 2 3 1 1 0 2 2 2 2 7 5 5 7 3 1 1 1 2 3 1 1 3 4 3 4 1 3 6 3 1 1 1 0 3 3 2 1 3 2 5 4 7 3 8 6 3 4 1 3 0 1 2 2 4 4 2 6 9 2 2 8 8 3 7 7 9 6 1 6 7 13 13 10 8
10 12 13 14 14 15 17 19 21 20 14 2 2 3 0 1 1 4 4 1 3 3 2 2 3 3 3 0 1 0 0 1 2 2 1 2 2 2 3 2 4 3 3 0 0 3 3 3 2 2 1 6 0 2 1 3 4 3 2 1 2 4 2 1 2 2 2 4 5 6 9 7 5 5 7 7 8 9 8 10 12 16 12 9 11 10 8
10 11 13 14 14 15 17 18 20 22 12 1 2 2 2 2 0 0 1 4 5 3 3 4 4 2 2 1 1 1 1 1 1 1 1 4 2 1 1 4 5 3 1 1 2 3 5 6 8 8 3 4 4 1 3 1 6 3 2 2 3 5 2 2 2 3 1 2 3 3 5 6 2 3 6 6 7 9 2 7 5 12 10 10 8 8 6
9 11 12 13 14 15 16 17 19 21 15 4 1 2 3 2 2 1 2 1 2 2 4 3 3 1 2 2 2 1 2 2 1 1 4 3 2 2 4 2 1 2 2 2 3 5 4 7 8 7 8 7 7 4 6 5 5 2 1 1 1 1 0 1 1 4 1 1 2 1 1 4 3 3 3 6 0 3 5 5 3 9 18 13 10 8 6
9 10 12 13 13 15 15 16 16 19 9 5 3 1 2 4 3 4 2 1 5 2 3 3 3 2 0 5 1 4 4 3 4 2 1 2 3 4 2 3 1 2 1 3 4 3 6 5 6 4 6 6 7 5 5 3 0 5 5 1 1 1 2 0 1 1 2 1 1 3 3 1 3 3 2 1 2 10 8 5 7 4 2 5 4 9 7
7 9 11 12 13 14 14 14 14 14 9 1 1 1 3 2 0 1 1 2 4 3 2 3 1 3 3 2 3 2 5 4 1 2 1 1 4 3 3 3 2 2 4 4 3 3 4 3 3 4 4 4 5 1 4 3 2 4 4 1 2 2 2 0 2 3 3 1 3 3 1 6 2 4 5 4 3 12 11 6 3 4 8 11 11 8 9
7 9 10 11 12 13 13 13 13 10 9 3 1 0 1 1 1 0 1 2 2 3 5 6 5 4 1 5 5 4 2 2 4 4 0 1 2 2 1 1 1 4 2 2 5 5 2 3 5 3 5 5 3 7 6 5 3 5 4 2 3 1 2 2 1 3 3 3 1 2 4 3 2 5 7 5 4 7 13 6 3 2 7 14 11 9 6
6 8 9 11 12 12 13 13 13 11 11 5 0 1 1 1 2 2 1 1 3 2 1 5 6 6 6 3 2 2 4 7 5 3 4 2 1 3 4 2 5 5 2 1 3 2 3 5 2 6 6 5 2 3 2 2 3 2 3 4 3 4 2 3 0 0 2 2 3 2 4 3 2 3 2 2 3 3 9 7 3 1 5 1 12 8 10
5 7 9 10 11 11 13 13 12 12 12 10 1 2 2 3 2 0 0 2 1 4 1 1 6 7 2 1 1 4 4 2 5 4 2 2 1 2 2 8 9 5 1 4 3 4 2 1 2 4 4 5 2 2 1 1 2 2 1 1 2 1 1 2 3 1 3 4 2 3 6 1 5 3 7 8 10 12 12 3 1 3 4 4 7 14 14
4 6 8 9 11 11 13 13 13 12 13 11 0 1 3 3 3 1 1 1 2 2 1 4 4 4 2 1 0 2 1 1 1 2 5 5 3 5 4 7 9 8 4 4 2 3 2 2 1 1 0 1 3 0 1 2 3 4 3 4 4 4 6 5 3 1 2 2 3 2 4 5 3 5 2 1 3 7 10 3 2 1 3 4 8 11 12
4 6 7 9 10 11 11 12 11 12 12 11 4 2 2 1 1 0 1 1 2 4 5 6 5 2 3 4 5 3 1 2 0 2 3 5 3 3 4 5 4 8 5 4 5 5 6 4 1 0 2 2 3 1 1 2 3 6 9 6 7 5 3 3 2 1 0 3 2 1 1 1 4 3 1 1 0 4 4 3 6 5 6 3 3 7 10
3 5 7 8 10 11 11 11 12 11 12 11 2 1 3 2 1 2 1 1 1 4 3 3 7 4 3 2 2 3 2 3 5 1 2 3 2 3 3 3 7 5 4 5 3 4 3 1 3 1 0 2 1 2 1 1 2 2 2 1 2 2 2 3 2 3 1 4 1 1 1 2 3 3 1 2 2 4 4 6 4 6 8 4 7 8 6
2 4 6 8 9 10 11 11 13 12 12 13 5 2 2 3 3 2 2 1 1 2 7 7 6 2 2 2 2 0 0 2 3 2 2 5 2 2 1 1 1 2 6 2 4 2 1 1 1 0 0 4 3 0 1 1 1 2 2 3 3 2 1 1 3 2 1 1 3 4 3 3 3 5 2 1 2 3 6 4 2 9 9 6 8 9 6
2 4 6 7 8 10 10 11 13 13 12 14 6 1 5 6 4 1 1 1 0 3 8 7 1 4 3 2 4 3 7 6 2 6 3 1 4 3 2 5 6 4 6 4 3 1 2 1 1 1 1 1 1 1 1 2 1 0 0 0 1 2 1 1 0 0 1 2 2 1 1 1 1 2 5 2 4 4 3 3 4 8 10 11 6 6 6
1 3 5 7 8 9 10 11 12 12 12 14 7 3 4 1 1 3 4 1 1 2 7 3 1 3 2 4 5 2 1 0 1 3 4 2 2 2 2 1 3 1 0 1 2 1 0 2 3 1 2 1 3 3 0 1 3 1 1 2 1 0 1 1 1 2 1 0 1 2 1 2 1 2 3 3 1 1 2 3 6 6 10 9 7 5 9
1 2 5 6 7 9 9 10 11 11 12 13 9 3 1 4 3 3 4 1 2 5 7 6 2 9 10 9 10 7 9 7 7 4 2 3 4 4 5 2 0 1 0 1 3 2 3 1 1 1 1 3 3 0 1 1 1 2 1 1 1 2 1 3 1 1 1 2 3 2 1 2 2 1 0 1 1 2 5 3 3 9 7 8 10 10 9
2 2 4 6 7 8 9 10 10 11 11 12 8 3 2 5 6 5 2 2 2 3 4 5 4 5 6 8 9 11 10 8 6 2 4 7 2 2 5 3 1 0 1 1 2 2 2 2 3 2 1 1 1 3 3 2 0 2 1 2 2 1 1 2 2 1 1 0 0 0 3 3 4 3 3 2 2 4 5 3 6 5 9 9 12 12 12
3 3 4 5 7 8 9 9 9 10 11 10 6 1 3 4 6 6 3 1 2 4 5 2 2 3 2 7 11 7 3 4 6 4 3 9 5 1 3 0 2 2 1 1 2 2 2 2 3 0 1 1 2 1 0 2 0 0 1 2 1 1 2 1 1 0 3 1 2 2 2 2 2 3 4 5 6 4 2 6 7 5 8 10 11 12 12
4 3 3 5 7 8 9 10 10 10 10 11 8 4 3 3 2 3 3 2 4 3 0 6 4 9 4 7 8 3 3 4 3 5 3 5 9 7 5 2 2 6 1 1 3 6 4 1 3 2 2 0 1 1 1 1 1 1 2 2 3 1 1 1 1 1 1 2 2 4 5 3 3 4 6 8 8 7 4 4 6 8 7 10 11 11 11
4 3 4 5 7 8 9 10 11 10 10 11 9 3 1 3 1 2 1 0 1 1 0 2 7 7 5 9 5 2 6 3 6 4 3 5 6 8 9 3 7 5 4 3 5 5 2 2 1 1 1 1 2 1 1 1 2 1 3 0 2 5 4 0 0 2 2 3 4 5 6 6 6 8 6 6 6 5 3 7 11 12 13 11 8 8 10
5 4 5 5 7 8 10 11 11 11 12 12 7 3 4 5 3 4 3 2 1 1 1 2 5 9 7 10 7 4 3 1 4 4 5 4 8 6 8 10 9 4 6 4 3 4 3 2 3 1 0 0 1 1 0 2 2 1 2 3 4 2 1 1 3 4 1 1 2 2 5 5 8 10 9 8 4 2 9 11 12 11 12 11 12 9 7
6 5 5 5 7 8 10 12 11 12 13 14 7 5 4 3 2 4 2 1 1 2 1 3 5 9 8 6 5 4 8 3 5 6 6 8 9 9 9 8 6 4 1 4 4 5 2 4 2 1 0 2 3 2 1 1 2 3 2 4 4 1 1 1 3 3 1 6 7 6 7 8 7 9 6 2 1 7 12 12 11 10 9 11 13 12 10
6 6 5 6 7 8 10 11 12 13 16 13 6 3 1 5 5 4 4 3 4 1 1 4 4 3 1 4 7 6 2 4 4 5 9 9 9 8 7 7 7 5 5 6 4 3 2 1 1 2 1 1 1 2 3 3 2 1 4 7 4 1 1 2 8 10 9 9 8 5 4 5 4 6 6 3 4 11 11 10 10 11 10 11 11 10 12
7 6 7 7 7 8 10 11 12 12 14 8 2 3 3 2 0 3 2 3 1 3 1 2 2 2 3 3 4 3 3 2 7 10 12 10 9 9 10 9 4 2 4 3 3 3 1 2 0 0 0 0 1 1 3 1 2 1 4 5 5 6 7 5 3 5 8 3 4 2 1 4 4 4 7 6 5 9 9 9 10 10 9 9 10 8 8
7 7 7 7 7 9 10 11 11 12 10 4 2 3 2 0 2 2 5 5 4 2 1 2 4 5 6 3 2 5 1 4 5 8 8 9 8 6 5 7 2 3 5 2 4 0 1 3 2 2 0 1 2 2 1 2 2 2 8 7 8 5 9 9 8 9 6 6 4 3 2 3 6 9 10 9 8 8 7 6 8 10 9 9 9 8 7
7 7 7 6 8 10 11 12 12 10 3 2 1 1 2 1 0 1 4 4 5 2 1 1 3 3 1 4 2 2 1 3 1 3 3 3 5 3 3 3 4 2 5 3 2 2 2 0 1 2 2 3 2 2 1 2 3 4 4 4 4 5 5 7 9 6 4 3 4 8 8 5 4 7 4 5 8 7 9 10 9 9 10 7 5 6 7
7 7 7 6 9 11 12 13 13 8 4 8 14 20 21 23 21 17 2 3 2 0 1 1 0 1 0 2 5 4 1 2 3 2 1 2 6 2 2 2 3 4 1 6 1 2 2 1 1 2 1 1 2 1 2 5 3 2 4 4 4 4 4 2 2 1 1 2 1 5 5 4 4 5 6 6 7 8 7 8 7 7 8 9 8 6 5
6 6 6 8 11 13 13 14 14 15 10 4 4 2 3 9 9 9 4 1 1 1 1 1 1 1 3 6 2 4 2 2 1 1 3 2 3 4 3 2 1 3 1 3 1 3 2 3 1 1 3 2 1 3 3 2 4 3 4 2 1 0 2 2 1 2 3 2 2 4 6 5 4 3 5 5 5 4 5 5 6 7 7 7 6 6 5
5 6 8 11 12 14 16 14 6 0 0 2 5 5 2 4 4 12 11 3 2 0 0 1 1 1 3 5 2 5 1 2 1 2 5 3 1 4 1 2 3 4 2 3 3 2 2 1 4 4 1 1 3 2 0 1 1 1 1 1 3 4 3 1 3 3 3 4 6 5 4 5 6 5 5 4 3 3 5 4 5 7 6 4 4 4 4
5 7 9 11 14 12 5 0 2 0 0 2 2 2 6 8 9 5 2 1 1 1 1 1 1 1 2 0 1 4 1 0 1 1 1 1 2 2 4 4 3 1 1 3 2 0 1 2 3 1 2 3 1 1 1 2 5 4 4 4 4 5 1 6 5 4 4 5 6 4 5 4 4 3 1 1 1 2 4 4 4 4 3 3 1 2 3
5 6 10 11 6 0 1 2 2 3 2 1 5 6 7 8 4 2 2 2 1 0 1 0 1 2 3 2 1 4 2 0 1 2 3 2 3 1 3 2 2 1 2 2 2 1 1 1 5 2 1 3 1 2 4 2 3 5 4 4 4 3 1 0 2 5 5 5 6 4 4 4 2 2 4 5 6 5 9 8 5 6 7 6 4 3 0
3 6 2 2 1 1 1 1 2 4 6 7 5 3 2 3 1 1 1 1 1 1 1 1 1 3 1 1 2 3 2 3 1 2 1 0 3 1 1 3 1 2 3 1 1 4 3 2 1 2 0 3 3 2 2 1 2 4 4 3 3 3 3 4 4 6 5 4 2 2 4 4 3 3 9 10 10 10 7 6 6 6 7 7 6 6 7
2 1 0 1 1 1 1 1 2 3 5 1 1 1 1 0 1 1 1 0 1 1 2 3 3 3 2 0 5 4 2 1 2 2 2 1 2 1 1 2 2 3 0 2 1 1 2 2 1 2 1 1 0 1 0 2 4 3 4 3 4 3 3 3 3 6 5 4 3 3 5 6 8 9 7 8 7 7 7 7 7 7 7 7 6 7 8
0 0 1 0 2 3 3 4 4 1 1 0 1 2 0 0 2 1 0 1 1 2 1 1 4 4 7 7 3 3 1 2 1 1 2 1 0 3 1 2 1 3 1 2 4 1 5 2 0 2 1 2 3 3 0 3 5 4 5 6 7 7 8 9 7 7 9 7 7 8 9 9 9 9 8 6 8 9 8 8 6 7 8 8 7 9 7
1 1 1 1 3 3 4 5 3 1 0 0 0 1 1 0 1 1 1 0 0 2 2 2 0 1 1 2 2 2 4 2 1 3 4 2 1 3 3 0 1 2 0 0 2 2 2 2 1 3 7 6 5 3 2 4 4 4 4 6 8 8 8 6 6 8 11 9 8 8 8 9 10 8 7 8 8 8 7 7 7 6 7 8 9 6 5
1 1 1 3 4 4 3 1 1 0 1 0 2 1 1 2 0 1 1 3 3 1 2 2 1 2 2 6 5 3 2 1 2 2 2 1 1 2 1 0 1 2 1 3 1 3 2 2 1 1 4 6 5 4 5 5 3 4 4 6 6 7 8 9 9 7 9 11 8 8 7 9 8 7 7 8 7 7 7 8 9 8 7 5 6 7 7
9 7 2 1 1 1 1 1 1 1 1 0 2 1 1 0 2 3 1 2 1 2 3 1 2 1 0 2 2 0 2 0 1 2 2 1 1 2 2 1 1 1 1 0 2 1 2 2 3 6 5 5 6 6 6 6 4 3 3 5 6 6 8 9 8 7 6 9 8 8 8 8 7 5 5 7 8 7 6 6 6 6 6 7 7 7 6
3 1 0 1 0 1 1 1 1 1 1 0 2 2 1 0 3 0 0 2 1 2 2 4 2 5 3 2 3 0 1 3 3 2 1 0 2 0 1 1 1 3 0 2 1 1 3 2 7 7 6 5 6 6 6 6 6 7 6 5 6 8 8 8 9 10 8 7 7 6 7 8 7 6 6 6 8 8 6 6 6 8 6 7 7 6 4
1 1 0 1 0 1 1 2 1 2 2 3 2 2 3 4 5 4 5 5 2 3 1 1 2 3 2 2 2 1 1 1 1 3 1 1 2 1 2 0 1 2 1 1 0 1 1 0 1 4 6 7 7 7 7 7 8 10 7 5 7 8 9 10 8 8 7 7 6 7 7 6 7 7 7 6 5 5 6 5 5 7 5 6 5 5 3
1 3 2 3 0 1 1 1 1 1 2 2 3 6 4 6 4 3 6 1 2 6 4 3 1 3 2 1 5 3 0 2 2 0 1 2 2 0 1 0 2 1 1 1 0 1 4 6 8 8 7 9 8 6 7 7 8 8 10 9 5 7 8 9 7 7 6 7 6 8 6 5 7 8 6 5 5 5 5 4 4 5 5 6 5 4 2
1 1 1 1 2 1 1 2 3 3 3 3 5 6 6 6 7 6 3 1 4 5 4 3 4 5 6 2 1 2 2 1 2 1 2 1 1 0 1 2 0 0 1 1 2 2 2 3 3 4 6 7 7 7 8 7 6 8 9 8 7 7 7 8 8 8 5 7 7 8 6 5 5 5 5 6 5 4 5 5 4 5 6 6 4 4 4
1 1 2 2 3 2 4 5 2 2 3 3 4 4 6 2 1 6 5 3 3 3 5 2 3 1 2 2 5 4 1 0 2 1 1 1 1 2 1 1 0 1 1 2 3 4 4 5 7 8 7 8 10 9 8 8 8 9 9 9 8 8 8 9 8 6 7 7 6 6 6 5 5 5 5 4 4 3 4 5 4 4 4 3 3 4 4
1 0 1 2 2 2 2 4 0 2 6 5 4 3 3 3 6 8 7 2 3 8 5 5 4 5 1 1 3 2 0 1 3 2 1 2 1 2 1 1 0 1 4 4 3 4 7 8 7 8 8 8 8 9 8 8 9 9 9 9 7 8 8 8 7 6 6 5 5 6 5 4 4 4 4 3 3 1 2 3 4 3 3 3 1 3 4
1 1 1 0 1 1 2 1 1 5 6 6 3 4 3 5 6 9 2 2 4 3 2 2 3 4 2 2 1 1 0 0 2 0 2 0 2 1 2 0 2 3 2 3 3 3 5 7 8 8 8 8 8 9 8 7 8 8 7 7 7 8 8 9 7 6 6 5 5 5 5 4 4 4 3 2 1 0 2 2 3 3 3 2 2 6 6
1 0 3 4 5 4 4 3 5 3 4 6 6 6 3 5 6 6 4 3 2 3 4 2 0 2 2 2 1 1 2 1 3 2 3 2 1 3 3 2 4 6 6 3 3 3 8 8 9 9 8 8 8 7 8 8 8 8 7 6 6 7 7 7 7 7 5 5 4 6 5 5 4 3 2 3 1 0 3 2 2 2 2 4 5 6 5
0 1 2 3 2 3 2 0 1 4 7 7 6 6 2 1 3 4 1 5 4 5 2 1 2 2 2 2 2 2 0 2 1 0 0 2 2 3 3 4 4 7 6 5 6 4 6 5 8 11 10 10 9 7 7 7 7 6 6 6 5 6 5 5 5 5 5 4 4 4 5 5 5 2 3 2 1 0 2 3 2 3 4 6 5 5 4
Wind_Direction
348 350 351 348 347 348 346 348 352 355 350 22 348 336 24 44 220 249 178 223 89 69 1 305 21 256 241 265 261 274 282 278 316 14 358 22 5 62 60 152 92 287 116 164 127 19 277 6 298 253 273 272 231 274 312 314 336 84 318 9 294 79 46 10 300 314 298 320 344 76 102 96 36 334 59 103 176 189 166 166 168 113 120 54 13 55 281
351 352 353 348 348 347 346 347 353 356 15 42 297 54 77 254 274 317 310 171 97 81 322 313 308 293 299 357 296 301 263 356 22 27 10 26 342 55 50 32 83 160 126 105 129 266 52 306 23 328 301 300 271 313 305 317 313 48 249 106 282 43 308 108 7 359 339 342 352 357 351 45 58 287 284 216 203 103 131 106 64 82 265 153 108 131 253
354 355 354 349 348 346 347 346 347 357 349 9 29 47 266 289 259 246 291 354 73 198 190 134 266 291 305 327 338 343 348 351 56 54 24 350 19 64 37 116 120 48 130 112 26 312 141 267 288 217 246 263 295 291 291 318 324 270 199 281 17 85 269 78 94 94 54 358 3 299 314 318 304 342 334 326 123 122 101 118 22 90 323 75 91 123 228
357 356 355 350 347 346 346 344 345 346 346 347 89 197 42 16 21 302 344 3 27 305 224 182 192 259 352 14 293 332 340 335 34 10 61 17 14 61 102 53 81 61 42 31 4 330 287 136 267 339 305 295 311 272 323 326 309 309 40 0 79 122 62 100 151 151 176 209 222 251 198 26 31 310 336 323 76 93 102 106 83 124 174 73 346 129 137
357 358 356 350 347 346 344 344 342 342 335 300 149 16 120 38 94 339 334 330 23 269 334 19 29 313 168 18 283 340 347 317 4 356 42 349 36 28 51 31 51 335 61 340 332 265 320 331 18 273 286 257 257 307 299 318 342 3 44 357 77 59 46 306 133 183 195 196 191 272 32 115 302 352 332 320 25 90 97 125 157 162 102 41 358 145 132
0 360 358 352 350 349 347 345 341 342 341 148 161 76 153 45 274 84 205 165 260 16 317 356 324 301 163 257 20 338 359 10 17 323 354 345 37 49 337 29 34 232 170 126 28 317 337 4 299 311 277 329 318 331 338 57 6 15 12 13 100 133 101 283 76 356 25 59 112 120 92 71 23 307 326 350 40 98 102 96 146 138 136 156 169 156 136
3 2 0 355 353 352 353 349 344 346 349 158 116 69 292 131 275 248 333 60 268 194 253 302 281 305 263 247 342 7 30 5 309 346 321 12 3 60 51 326 328 323 275 116 213 312 34 323 298 246 292 337 335 338 336 341 27 22 7 354 99 82 65 263 95 90 20 358 84 103 91 85 31 346 347 17 68 71 90 93 79 114 103 126 144 141 139
4 5 2 358 357 357 359 355 348 347 355 163 36 76 79 343 56 309 352 329 279 268 287 274 1 353 301 97 277 159 253 336 316 345 59 21 310 7 96 277 287 299 275 92 136 218 187 205 256 262 213 315 29 275 214 262 323 31 15 336 331 101 291 174 53 68 350 354 352 63 83 75 34 338 23 46 71 74 92 105 101 90 88 112 124 128 126
6 5 5 1 0 3 4 2 356 346 354 101 52 75 57 282 198 177 344 342 277 309 337 342 348 6 328 83 283 83 292 206 234 335 32 91 35 32 289 273 298 339 64 116 265 238 210 202 213 228 196 254 227 128 277 179 302 350 2 24 328 69 275 54 63 75 318 338 7 76 93 105 136 5 12 15 77 95 111 118 165 122 138 131 121 130 148
4 6 6 3 3 7 7 9 4 355 348 111 74 64 303 339 298 355 140 266 303 357 302 308 54 34 230 161 233 178 267 307 72 30 321 34 69 1 335 326 47 317 11 305 258 263 225 236 237 236 240 230 258 210 238 192 190 219 178 200 82 39 87 40 54 71 267 292 87 9 53 57 26 320 313 330 288 108 87 54 25 141 139 136 154 182 166
5 5 8 5 7 9 12 13 12 9 7 72 71 15 345 36 346 350 38 95 318 341 324 316 61 233 236 312 2 14 18 59 95 106 265 322 316 314 341 349 54 267 240 251 255 256 272 254 249 249 249 251 252 239 221 197 220 171 166 66 8 74 104 115 150 118 249 290 31 10 59 118 231 227 261 225 206 140 122 126 127 129 116 167 154 145 146
2 6 9 6 7 11 14 14 14 18 29 347 133 164 222 296 301 132 71 95 266 309 39 277 234 302 346 338 90 51 31 7 312 156 115 256 264 292 329 323 110 7 243 244 311 326 312 309 310 315 304 301 308 170 141 126 334 19 358 139 143 111 93 133 129 99 225 334 39 47 255 232 243 322 331 328 112 99 94 82 65 140 118 117 117 128 140
5 6 9 7 5 11 13 12 8 6 14 352 116 203 280 346 146 97 120 121 228 334 360 309 302 271 319 44 41 15 18 23 24 24 334 237 300 318 260 285 257 234 228 315 349 9 12 298 312 313 304 328 34 88 58 56 8 16 26 49 108 128 108 171 32 126 44 56 96 144 240 248 335 3 62 61 44 100 91 45 353 337 145 138 132 138 122
4 8 8 8 7 9 12 9 2 355 358 5 99 218 280 323 65 37 73 92 300 243 243 308 326 4 7 5 77 333 19 16 344 40 30 296 234 263 294 311 282 266 209 44 31 46 13 31 12 7 325 1 4 17 314 45 81 87 25 358 61 128 90 84 243 27 165 184 139 204 312 346 1 84 163 130 127 164 142 152 256 24 5 53 131 114 116
10 9 8 7 7 8 9 5 358 353 357 352 215 263 217 224 200 182 257 98 217 275 169 78 333 302 339 297 98 39 34 336 24 333 283 310 53 291 352 343 342 338 56 69 5 41 114 100 27 7 326 40 30 284 328 358 310 48 71 85 60 82 91 230 106 291 111 133 64 15 24 299 271 277 337 21 11 0 341 65 83 341 48 54 121 140 137
16 9 8 6 6 7 6 1 356 354 0 350 139 286 262 211 235 227 145 153 112 45 235 224 313 272 267 262 110 101 77 53 306 341 353 344 333 336 1 2 359 3 34 59 67 78 36 71 277 77 319 290 266 39 320 354 342 312 24 41 74 40 77 98 118 195 45 56 121 193 174 239 216 278 285 305 75 36 339 44 151 266 129 152 152 134 135
9 5 7 6 5 5 2 357 354 355 356 1 347 359 326 289 6 103 57 34 100 211 268 317 301 302 58 354 3 22 113 120 127 63 339 337 312 332 330 353 344 27 17 80 10 54 25 20 359 263 279 320 357 240 330 42 339 324 335 12 38 39 2 36 25 55 124 133 101 242 195 223 247 239 249 141 337 85 67 115 229 206 151 137 103 136 143
3 3 6 6 5 3 358 355 357 353 349 349 336 145 256 312 285 304 61 125 103 284 250 25 1 18 11 310 272 279 45 20 28 42 99 283 333 347 329 4 355 340 42 77 29 63 42 63 14 3 327 281 288 47 59 311 309 262 321 348 335 353 338 54 194 165 166 114 247 327 291 277 274 280 42 160 162 76 119 196 235 156 132 141 107 109 126
1 356 2 2 2 360 358 356 358 354 349 354 332 78 281 252 287 299 136 55 97 250 265 340 267 258 264 292 223 261 151 116 129 94 318 7 308 289 8 17 78 17 360 78 53 78 97 296 305 305 97 308 21 167 269 53 259 280 39 21 0 346 40 320 65 66 161 185 130 216 231 248 258 291 293 307 76 165 220 238 140 120 117 111 102 102 95
345 359 359 357 359 358 358 357 355 354 352 1 22 148 260 306 275 220 77 126 133 262 291 280 307 314 349 346 343 4 349 17 68 125 148 132 275 51 28 6 330 68 2 53 41 261 87 298 260 1 12 264 258 184 30 276 301 242 235 206 135 217 101 244 162 215 70 42 77 1 247 219 212 275 326 12 120 229 209 112 92 121 120 116 107 100 100
340 354 349 351 355 358 357 355 353 352 357 2 23 53 349 266 6 36 57 126 111 351 303 282 280 276 291 272 237 196 157 208 197 102 202 187 227 87 80 196 255 55 315 116 115 311 143 293 298 234 224 148 280 52 201 273 325 306 199 200 165 103 63 305 302 168 152 105 168 204 210 243 241 184 185 213 189 242 35 60 107 106 123 125 116 103 118
325 341 341 345 351 356 354 353 350 353 359 8 11 84 273 280 353 356 343 169 136 182 225 262 261 277 265 246 258 233 207 235 237 159 123 53 349 117 178 147 109 112 210 104 36 2 357 284 27 19 336 305 18 159 172 58 318 269 1 79 21 345 158 181 169 265 142 194 214 234 302 312 288 222 235 98 166 107 100 70 108 126 128 135 119 123 117
263 307 329 344 348 349 351 347 348 350 0 8 25 84 245 307 318 325 336 50 308 310 288 303 305 281 275 258 237 227 232 216 221 94 129 108 29 2 113 100 354 183 88 102 166 166 210 137 237 182 13 53 284 301 351 136 191 345 13 292 176 248 238 188 89 216 179 86 206 143 35 17 352 17 64 56 33 21 46 84 105 107 130 135 132 135 135
262 295 329 345 340 341 342 344 343 347 354 4 22 74 291 265 274 340 8 67 90 320 324 321 23 309 355 329 306 292 190 201 192 188 176 124 107 329 334 245 163 40 21 280 180 154 206 156 217 143 172 275 49 95 129 328 318 248 47 335 336 288 312 53 126 274 54 291 345 46 69 38 8 350 29 49 50 39 34 62 76 86 113 116 120 124 125
254 273 311 331 333 333 334 337 340 343 348 350 352 268 251 300 270 31 68 59 332 65 267 306 280 232 252 276 265 260 200 170 154 131 105 96 132 143 168 175 155 141 159 357 21 53 38 94 345 33 120 257 95 254 255 104 305 76 54 278 352 327 327 50 67 71 94 256 37 80 64 19 355 21 44 59 56 48 39 101 109 106 103 109 116 113 112
246 269 305 316 325 327 327 333 339 341 337 337 339 326 311 246 24 47 174 209 163 134 81 308 284 302 328 353 338 292 289 178 155 164 120 162 156 139 145 102 58 44 88 67 62 87 107 47 73 93 97 286 64 129 293 196 206 256 118 194 308 276 329 260 204 89 65 70 63 97 98 62 18 18 30 90 87 73 42 83 87 91 91 88 80 99 124
250 267 283 309 318 322 326 331 337 336 331 327 323 259 238 275 222 197 135 112 77 9 33 275 275 301 352 324 280 313 320 221 149 136 124 133 101 87 94 104 104 73 90 52 34 108 62 77 83 20 62 228 17 239 286 350 39 52 359 320 327 8 34 334 73 74 16 166 4 348 97 96 67 59 29 43 43 108 88 74 73 81 89 88 85 65 62
250 260 284 301 310 319 327 329 334 333 330 324 304 266 220 241 239 199 223 145 55 163 203 260 300 292 306 273 271 285 303 265 147 134 129 116 108 104 111 109 112 101 39 73 23 21 28 53 333 263 82 334 38 343 13 359 33 30 325 335 315 316 330 53 136 135 112 48 37 30 72 81 104 119 120 170 217 80 77 79 82 78 80 91 93 89 79
244 260 276 290 304 317 324 330 332 334 333 331 306 297 170 233 243 236 235 221 187 186 174 263 291 326 23 293 303 321 342 121 102 95 107 117 108 102 104 107 110 119 81 75 99 109 118 175 197 82 352 229 89 293 44 10 41 332 341 323 329 327 274 98 110 108 85 84 78 29 51 106 144 156 159 161 98 83 82 79 82 85 87 84 83 91 100
246 256 271 288 304 312 322 326 331 334 339 334 348 52 42 335 101 82 351 1 160 119 68 16 13 260 300 311 307 311 305 33 74 91 109 109 111 121 128 116 99 74 113 135 141 78 213 142 314 281 62 314 151 187 76 71 2 288 347 337 358 57 76 82 49 78 107 84 83 54 50 128 173 146 108 102 90 94 92 93 93 90 84 87 89 83 89
244 254 269 284 297 310 315 320 326 333 346 342 50 71 53 20 278 124 37 25 3 100 155 124 232 284 333 261 244 281 228 80 93 91 106 126 133 124 110 87 70 119 78 30 50 136 121 20 8 353 198 129 128 79 145 132 230 26 4 9 352 39 82 86 87 82 76 66 42 0 315 51 89 80 73 78 81 83 88 86 92 99 102 93 95 99 94
248 261 270 284 299 303 309 312 319 328 336 344 143 157 169 182 314 306 39 10 359 59 79 5 340 359 288 311 291 285 106 107 74 73 52 96 71 78 58 86 137 30 124 124 168 57 33 264 84 329 35 327 55 68 47 65 64 40 32 31 9 31 49 89 94 94 82 50 55 74 68 56 65 108 126 108 103 109 115 116 114 108 102 107 111 109 119
249 259 272 290 299 301 303 306 307 311 265 269 270 276 275 269 265 264 4 338 24 187 135 83 168 222 22 260 316 316 108 36 24 52 77 33 139 128 74 30 72 68 34 79 352 126 208 95 338 31 289 3 72 48 47 20 14 32 92 67 62 57 44 6 78 109 95 154 170 130 146 144 132 133 127 124 123 122 118 114 117 115 112 108 106 102 94
254 265 293 298 297 298 302 303 305 299 293 300 328 275 252 241 240 226 146 131 152 250 74 115 20 8 260 310 46 280 53 122 224 54 118 291 153 87 158 90 17 87 349 110 247 73 6 62 68 275 344 20 48 67 43 355 300 17 59 111 116 291 275 314 265 265 267 273 180 154 135 143 125 102 91 99 100 79 100 111 117 118 128 126 129 137 141
265 288 290 295 294 297 302 305 309 344 268 269 251 265 345 340 136 145 146 138 92 346 25 316 117 40 348 358 30 276 257 92 177 206 135 250 55 136 148 72 335 76 286 84 41 115 125 231 174 60 309 340 45 41 9 229 227 161 88 167 224 231 270 97 108 148 163 149 122 128 127 112 109 126 143 147 119 115 119 131 130 129 129 147 137 130 137
277 284 291 293 298 300 304 252 152 191 318 246 220 135 99 93 106 129 135 105 129 149 107 245 91 188 150 124 319 275 345 12 277 45 163 123 12 22 95 115 79 253 193 90 155 21 172 211 70 32 313 62 322 179 198 188 161 188 185 196 202 201 204 135 140 127 129 127 122 118 107 96 105 142 134 143 154 143 138 120 64 58 80 77 92 138 154
286 297 304 302 296 99 291 235 201 193 213 212 157 140 120 111 76 75 23 16 335 75 143 87 56 257 159 218 255 280 63 223 326 46 349 85 181 287 61 50 150 272 40 17 43 135 258 88 100 94 19 123 165 227 201 178 166 173 195 205 208 238 254 119 149 123 105 103 108 109 107 105 101 84 85 70 77 86 92 96 117 119 107 109 114 108 153
302 308 335 0 31 22 345 301 224 219 127 101 128 74 349 13 89 334 5 28 267 93 333 69 207 255 294 89 259 250 61 269 78 121 319 219 79 345 49 106 208 97 134 195 249 178 91 41 74 119 11 269 268 275 254 188 172 176 177 189 201 202 181 160 133 106 103 94 103 126 99 117 103 49 70 60 69 71 70 74 66 64 74 74 72 81 72
318 289 2 236 109 214 189 257 332 112 90 3 68 67 321 2 55 16 272 234 33 313 271 137 239 217 148 85 275 288 163 144 21 32 102 274 104 296 20 100 293 75 323 58 226 93 36 355 13 48 73 297 329 255 13 73 76 127 154 151 133 125 104 78 97 125 139 166 170 167 151 136 100 92 94 86 76 71 72 73 73 74 84 84 76 68 66
42 28 164 116 184 232 261 294 345 349 40 73 323 101 280 307 96 265 262 66 330 283 129 248 216 189 188 193 176 311 315 74 88 85 156 308 356 138 242 90 262 94 169 136 237 39 119 135 279 80 232 255 236 262 44 111 83 64 80 87 87 87 86 88 80 87 92 82 79 82 88 94 100 103 103 98 86 76 63 58 60 65 71 76 74 70 70
238 230 313 227 268 310 302 304 333 46 69 42 10 356 76 352 265 196 96 79 163 238 199 176 280 285 296 115 133 247 283 86 196 131 111 105 249 81 56 74 239 84 314 234 273 76 77 82 37 150 214 213 209 212 191 117 105 82 84 99 97 101 104 101 99 100 98 93 85 80 85 93 92 93 93 96 92 88 85 79 73 79 77 69 66 65 71
286 267 269 305 266 269 309 348 75 53 354 149 120 266 212 212 293 3 126 144 237 235 291 173 272 190 240 172 194 161 284 206 104 88 95 75 309 109 186 304 17 103 204 236 153 66 79 118 183 239 245 214 204 175 150 140 150 115 105 99 101 106 102 100 95 86 96 101 98 94 91 94 97 98 103 96 90 85 79 73 68 65 74 81 77 65 62
297 271 168 285 330 297 130 75 283 115 125 3 47 7 330 104 214 167 258 261 279 128 256 194 219 197 272 65 40 163 185 267 109 351 71 152 291 56 82 27 55 52 232 295 73 77 93 156 187 232 217 196 182 166 163 157 160 122 103 102 108 108 107 100 96 87 75 91 96 97 95 89 89 98 98 95 91 77 69 76 88 85 77 71 67 64 65
269 212 111 300 75 285 87 194 260 60 339 93 118 190 223 336 305 25 94 271 234 250 216 152 250 109 194 289 137 304 7 359 39 78 39 319 83 18 57 106 209 242 29 40 42 134 208 212 203 188 188 176 162 152 147 134 124 105 89 88 96 94 88 87 86 84 75 71 74 81 83 85 84 76 74 73 81 86 74 56 60 82 79 74 68 69 68
56 49 17 24 29 269 71 292 330 123 193 233 152 194 169 182 238 182 192 242 126 220 306 89 128 98 175 257 49 29 114 173 289 98 237 76 47 10 104 239 254 29 89 238 328 343 24 231 191 133 165 158 159 153 138 133 128 124 125 102 92 96 95 91 91 90 84 80 85 83 82 84 81 74 73 73 70 87 93 84 79 86 90 86 86 76 64
145 165 113 100 190 290 132 212 131 256 274 163 202 201 174 233 182 235 254 233 317 316 336 248 208 103 150 234 129 203 54 93 58 335 159 67 101 231 244 262 73 65 13 39 71 215 214 211 180 186 169 154 152 147 128 127 124 124 112 111 117 104 104 102 97 94 94 85 72 72 73 74 88 86 77 75 80 69 69 70 89 115 112 95 92 101 92
325 325 121 125 106 260 105 163 224 202 182 213 223 192 198 216 209 204 234 264 274 256 271 254 174 183 154 220 52 4 29 63 111 263 68 67 165 250 4 97 247 163 131 248 254 250 260 237 214 186 153 141 133 125 122 122 123 115 116 121 113 109 106 98 94 93 95 85 77 71 66 75 77 88 86 65 45 40 46 56 87 129 117 125 149 126 84
191 238 96 121 206 176 170 233 212 290 269 199 236 213 223 199 318 293 256 218 216 322 283 159 125 89 71 301 81 167 204 42 87 310 144 159 32 45 17 37 331 253 175 162 226 223 205 181 175 170 164 148 136 130 127 125 124 120 121 118 115 109 104 103 100 97 88 86 80 77 73 75 83 84 95 110 71 28 54 78 107 125 130 144 120 90 90
231 146 156 196 202 155 216 242 115 289 273 301 288 288 278 263 250 253 263 264 255 270 221 147 176 94 128 262 95 76 31 330 97 241 14 35 98 195 146 205 82 313 270 179 205 213 191 175 171 156 147 138 133 129 133 134 130 126 123 121 122 121 112 109 117 117 104 98 102 90 94 118 105 91 76 66 59 1 31 90 126 161 169 144 140 88 71
152 325 350 74 27 297 267 101 164 281 295 301 325 285 242 236 250 261 210 235 237 214 325 3 43 95 187 105 41 27 187 272 144 57 66 119 189 175 78 66 231 193 252 243 216 213 180 149 143 142 141 135 132 132 130 130 120 120 123 123 121 113 117 120 120 118 119 118 118 118 127 120 126 130 112 106 162 231 67 93 150 184 212 197 124 102 105
252 146 226 184 148 210 140 169 200 236 298 276 256 254 221 234 218 252 230 187 89 63 38 117 194 96 68 34 72 74 244 192 71 146 159 192 207 111 153 187 236 214 233 238 222 175 149 152 142 135 131 128 132 132 130 130 128 130 133 129 127 123 126 129 134 132 138 154 151 117 133 167 180 172 175 156 148 23 54 346 276 286 356 48 81 103 99
100 176 246 272 196 170 167 151 148 202 232 251 254 249 145 288 270 260 275 109 85 97 175 244 82 60 70 148 210 184 86 49 92 80 48 276 150 135 212 193 222 218 190 125 104 109 112 127 132 131 133 137 139 134 131 128 127 130 133 138 138 133 135 136 134 144 153 164 165 154 171 200 203 161 92 104 95 45 354 304 348 41 98 109 106 117 133